When you browse on this site, cookies collect data to enhance your experience and personalize the content and advertising you see.
Visit our Privacy Policy to learn more. By continuing to use the site, you agree to this use of cookies and data.
  • In Hungary
  • List of Countries
  • For 7 days
  • Water Temperature
  • Satellite Maps
  • Weather Map
  • News
  • Weather Widgets
  • user-avatar
    Login

    Hourly Weather Valdivia

    Today, 20 March, Wednesday

    Time Temperature Precipitation Wind Pressure Humidity
    00:00 +7°C° 0 mm 3 mps 768 mmHg 75%
    01:00 +7°C° 0 mm 3 mps 767 mmHg 78%
    02:00 +5°C° 0 mm 3 mps 767 mmHg 83%
    03:00 +5°C° 0 mm 3 mps 766 mmHg 88%
    04:00 +5°C° 0 mm 3 mps 766 mmHg 92%
    05:00 +5°C° 0 mm 3 mps 766 mmHg 91%
    06:00 +5°C° 0 mm 3 mps 765 mmHg 91%
    07:00 +7°C° 0 mm 3 mps 765 mmHg 90%
    08:00 +10°C° 0 mm 2 mps 765 mmHg 76%
    09:00 +14°C° 0 mm 2 mps 765 mmHg 62%
    10:00 +16°C° 0 mm 2 mps 764 mmHg 47%
    11:00 +18°C° 0 mm 2 mps 764 mmHg 42%
    12:00 +20°C° 0 mm 2 mps 763 mmHg 37%
    13:00 +23°C° 0 mm 2 mps 763 mmHg 31%
    14:00 +23°C° 0 mm 2 mps 763 mmHg 34%
    15:00 +22°C° 0 mm 3 mps 762 mmHg 36%
    16:00 +22°C° 0 mm 3 mps 762 mmHg 39%
    17:00 +19°C° 0 mm 2 mps 762 mmHg 49%
    18:00 +17°C° 0 mm 2 mps 762 mmHg 59%
    19:00 +15°C° 0 mm 2 mps 763 mmHg 68%
    20:00 +15°C° 0 mm 2 mps 763 mmHg 70%
    21:00 +14°C° 0 mm 2 mps 763 mmHg 72%
    22:00 +14°C° 0 mm 1 mps 763 mmHg 74%
    23:00 +13°C° 0 mm 1 mps 763 mmHg 77%

    Tomorrow, 21 March, Thursday

    Time Temperature Precipitation Wind Pressure Humidity
    00:00 +12°C° 0 mm 1 mps 763 mmHg 81%
    01:00 +11°C° 0 mm 1 mps 763 mmHg 85%
    02:00 +11°C° 0 mm 1 mps 763 mmHg 84%
    03:00 +11°C° 0 mm 1 mps 762 mmHg 83%
    04:00 +12°C° 0 mm 1 mps 762 mmHg 83%
    05:00 +11°C° 0 mm 0 mps 762 mmHg 81%
    06:00 +11°C° 0 mm 0 mps 762 mmHg 79%
    07:00 +11°C° 0 mm 0 mps 763 mmHg 77%
    08:00 +13°C° 0 mm 0 mps 763 mmHg 69%
    09:00 +15°C° 0 mm 0 mps 763 mmHg 60%
    10:00 +17°C° 0 mm 0 mps 763 mmHg 51%
    11:00 +20°C° 0 mm 1 mps 763 mmHg 51%
    12:00 +20°C° 0 mm 1 mps 763 mmHg 52%
    13:00 +20°C° 0 mm 2 mps 762 mmHg 52%
    14:00 +19°C° 0 mm 2 mps 762 mmHg 57%
    15:00 +19°C° 0 mm 2 mps 762 mmHg 62%
    16:00 +18°C° 0 mm 2 mps 762 mmHg 66%
    17:00 +18°C° 0 mm 1 mps 763 mmHg 76%
    18:00 +15°C° 0 mm 1 mps 763 mmHg 85%
    19:00 +12°C° 0 mm 0 mps 764 mmHg 95%
    20:00 +12°C° 0 mm 0 mps 764 mmHg 96%
    21:00 +13°C° 0 mm 1 mps 764 mmHg 97%
    22:00 +12°C° 0 mm 1 mps 764 mmHg 98%
    23:00 +12°C° 0 mm 1 mps 764 mmHg 98%

    Day after tomorrow, 22 March, Friday

    Time Temperature Precipitation Wind Pressure Humidity
    00:00 +12°C° 0 mm 1 mps 764 mmHg 98%
    01:00 +12°C° 0 mm 1 mps 764 mmHg 98%
    02:00 +12°C° 0 mm 1 mps 764 mmHg 98%
    03:00 +11°C° 0 mm 1 mps 764 mmHg 98%
    04:00 +11°C° 0 mm 1 mps 764 mmHg 98%
    05:00 +12°C° 0 mm 1 mps 764 mmHg 97%
    06:00 +12°C° 0 mm 1 mps 764 mmHg 96%
    07:00 +12°C° 0 mm 1 mps 764 mmHg 95%
    08:00 +15°C° 0 mm 1 mps 764 mmHg 85%
    09:00 +18°C° 0 mm 1 mps 764 mmHg 75%
    10:00 +20°C° 0 mm 1 mps 764 mmHg 65%
    11:00 +21°C° 0 mm 1 mps 763 mmHg 59%
    12:00 +23°C° 0 mm 2 mps 763 mmHg 54%
    13:00 +24°C° 0 mm 2 mps 763 mmHg 48%
    14:00 +23°C° 0 mm 2 mps 763 mmHg 51%
    15:00 +21°C° 0 mm 2 mps 762 mmHg 54%
    16:00 +21°C° 0 mm 2 mps 762 mmHg 57%
    17:00 +19°C° 0 mm 2 mps 762 mmHg 67%
    18:00 +17°C° 0 mm 2 mps 762 mmHg 76%
    19:00 +14°C° 0 mm 1 mps 762 mmHg 86%
    20:00 +14°C° 0.1 mm 1 mps 762 mmHg 89%
    21:00 +14°C° 0.1 mm 1 mps 762 mmHg 92%
    22:00 +14°C° 0.1 mm 1 mps 762 mmHg 95%
    23:00 +14°C° 1.3 mm 1 mps 762 mmHg 96%

    23 March, Saturday

    Time Temperature Precipitation Wind Pressure Humidity
    00:00 +15°C° 1.3 mm 1 mps 762 mmHg 98%
    01:00 +15°C° 1.3 mm 1 mps 762 mmHg 99%
    02:00 +14°C° 0 mm 1 mps 762 mmHg 98%
    03:00 +14°C° 0 mm 2 mps 762 mmHg 98%
    04:00 +13°C° 0 mm 2 mps 763 mmHg 98%
    05:00 +13°C° 0 mm 2 mps 763 mmHg 97%
    06:00 +12°C° 0 mm 2 mps 764 mmHg 96%
    07:00 +12°C° 0 mm 2 mps 765 mmHg 96%
    08:00 +13°C° 0 mm 2 mps 765 mmHg 88%
    09:00 +14°C° 0 mm 2 mps 765 mmHg 80%
    10:00 +15°C° 0 mm 2 mps 766 mmHg 73%
    11:00 +17°C° 0 mm 2 mps 765 mmHg 64%
    12:00 +19°C° 0 mm 2 mps 765 mmHg 55%
    13:00 +20°C° 0 mm 3 mps 765 mmHg 46%
    14:00 +20°C° 0 mm 3 mps 765 mmHg 47%
    15:00 +20°C° 0 mm 3 mps 765 mmHg 48%
    16:00 +20°C° 0 mm 3 mps 765 mmHg 49%
    17:00 +18°C° 0 mm 3 mps 765 mmHg 57%
    18:00 +16°C° 0 mm 2 mps 766 mmHg 66%
    19:00 +14°C° 0 mm 2 mps 766 mmHg 75%
    20:00 +13°C° 0 mm 2 mps 766 mmHg 79%
    21:00 +12°C° 0 mm 2 mps 766 mmHg 82%
    22:00 +10°C° 0 mm 2 mps 766 mmHg 86%
    23:00 +10°C° 0 mm 2 mps 766 mmHg 88%

    24 March, Sunday

    Time Temperature Precipitation Wind Pressure Humidity
    00:00 +9°C° 0 mm 2 mps 766 mmHg 91%
    01:00 +9°C° 0 mm 2 mps 766 mmHg 93%
    02:00 +9°C° 0 mm 2 mps 765 mmHg 93%
    03:00 +9°C° 0 mm 2 mps 765 mmHg 92%
    04:00 +9°C° 0 mm 2 mps 765 mmHg 92%
    05:00 +9°C° 0 mm 2 mps 765 mmHg 89%
    06:00 +9°C° 0 mm 2 mps 764 mmHg 87%
    07:00 +10°C° 0 mm 2 mps 764 mmHg 84%
    08:00 +13°C° 0 mm 2 mps 764 mmHg 72%
    09:00 +16°C° 0 mm 2 mps 764 mmHg 61%
    10:00 +19°C° 0 mm 2 mps 763 mmHg 49%
    11:00 +21°C° 0 mm 2 mps 763 mmHg 44%
    12:00 +24°C° 0 mm 2 mps 762 mmHg 39%
    13:00 +26°C° 0 mm 3 mps 762 mmHg 34%
    14:00 +26°C° 0 mm 3 mps 762 mmHg 36%
    15:00 +25°C° 0 mm 3 mps 761 mmHg 37%
    16:00 +25°C° 0 mm 3 mps 761 mmHg 39%
    17:00 +21°C° 0 mm 3 mps 761 mmHg 50%
    18:00 +19°C° 0 mm 3 mps 761 mmHg 60%
    19:00 +16°C° 0 mm 2 mps 762 mmHg 70%
    20:00 +15°C° 0 mm 2 mps 762 mmHg 74%
    21:00 +14°C° 0 mm 2 mps 762 mmHg 78%
    22:00 +13°C° 0 mm 2 mps 762 mmHg 82%
    23:00 +13°C° 0 mm 2 mps 762 mmHg 85%

    25 March, Monday

    Time Temperature Precipitation Wind Pressure Humidity
    00:00 +12°C° 0 mm 2 mps 761 mmHg 87%
    01:00 +10°C° 0 mm 2 mps 761 mmHg 90%
    02:00 +10°C° 0 mm 2 mps 761 mmHg 90%
    03:00 +10°C° 0 mm 2 mps 761 mmHg 90%
    04:00 +9°C° 0 mm 2 mps 761 mmHg 90%
    05:00 +10°C° 0 mm 2 mps 761 mmHg 86%
    06:00 +10°C° 0 mm 2 mps 761 mmHg 82%
    07:00 +10°C° 0 mm 2 mps 761 mmHg 78%
    08:00 +14°C° 0 mm 2 mps 761 mmHg 66%
    09:00 +17°C° 0 mm 2 mps 761 mmHg 54%
    10:00 +21°C° 0 mm 1 mps 760 mmHg 42%
    11:00 +22°C° 0 mm 1 mps 760 mmHg 38%
    12:00 +24°C° 0 mm 2 mps 760 mmHg 33%
    13:00 +26°C° 0 mm 2 mps 759 mmHg 29%
    14:00 +26°C° 0 mm 2 mps 759 mmHg 32%
    15:00 +26°C° 0 mm 2 mps 759 mmHg 36%
    16:00 +25°C° 0 mm 2 mps 759 mmHg 39%
    17:00 +24°C° 0 mm 2 mps 759 mmHg 42%
    18:00 +23°C° 0 mm 2 mps 759 mmHg 45%
    19:00 +20°C° 0 mm 3 mps 759 mmHg 48%
    20:00 +20°C° 0 mm 2 mps 760 mmHg 48%
    21:00 +19°C° 0 mm 2 mps 760 mmHg 49%
    22:00 +19°C° 0 mm 2 mps 760 mmHg 49%
    23:00 +17°C° 0 mm 2 mps 760 mmHg 52%
    Show more